| time (UTC) | temp F | wind direction | speed MPH | gust MPH | rain 1hr in | rain 24hr in | rain mn in | humidity % | barometer mb |
| 20260503054537 | 53 | 340 | 0.0 | 0.0 | 0.00 | 0.00 | 0.00 | 67 | 1018.7 |
| 20260503053035 | 53 | 340 | 0.0 | 0.0 | 0.00 | 0.00 | 0.00 | 66 | 1018.8 |
| 20260503051533 | 53 | 340 | 0.0 | 0.0 | 0.00 | 0.00 | 0.00 | 66 | 1018.6 |
| 20260503050030 | 54 | 340 | 0.0 | 0.0 | 0.00 | 0.00 | 0.00 | 66 | 1018.7 |
| 20260503044536 | 54 | 340 | 0.0 | 0.0 | 0.00 | 0.00 | 0.00 | 66 | 1018.7 |
| 20260503043029 | 54 | 340 | 0.0 | 0.0 | 0.00 | 0.00 | 0.00 | 65 | 1018.7 |
| 20260503041529 | 55 | 340 | 0.0 | 0.0 | 0.00 | 0.00 | 0.00 | 65 | 1018.8 |
| 20260503040028 | 56 | 340 | 0.0 | 0.0 | 0.00 | 0.00 | 0.00 | 65 | 1018.3 |
| 20260503034528 | 56 | 340 | 0.0 | 0.0 | 0.00 | 0.00 | 0.00 | 65 | 1018.4 |
| 20260503033031 | 57 | 340 | 0.0 | 0.0 | 0.00 | 0.00 | 0.00 | 64 | 1018.2 |
| 20260503031527 | 58 | 340 | 0.0 | 0.0 | 0.00 | 0.00 | 0.00 | 64 | 1017.9 |
| 20260503030025 | 59 | 340 | 0.0 | 0.0 | 0.00 | 0.00 | 0.00 | 64 | 1017.8 |
| 20260503024526 | 60 | 340 | 0.0 | 0.0 | 0.00 | 0.00 | 0.00 | 64 | 1017.7 |
| 20260503023024 | 61 | 340 | 0.0 | 0.0 | 0.00 | 0.00 | 0.00 | 64 | 1017.5 |
| 20260503021524 | 62 | 340 | 0.0 | 0.0 | 0.00 | 0.00 | 0.00 | 64 | 1017.2 |
| 20260503020024 | 63 | 340 | 0.0 | 2.0 | 0.00 | 0.00 | 0.00 | 64 | 1017.0 |
| 20260503014524 | 65 | 340 | 0.0 | 1.0 | 0.00 | 0.00 | 0.00 | 64 | 1016.9 |
| 20260503013023 | 66 | 340 | 0.0 | 0.0 | 0.00 | 0.00 | 0.00 | 64 | 1016.8 |
| 20260503011522 | 67 | 340 | 0.0 | 1.0 | 0.00 | 0.00 | 0.00 | 64 | 1016.7 |
| 20260503010025 | 68 | 340 | 0.0 | 0.0 | 0.00 | 0.00 | 0.00 | 64 | 1016.6 |
| 20260503004528 | 69 | 340 | 0.0 | 4.0 | 0.00 | 0.00 | 0.00 | 64 | 1016.6 |
| 20260503003038 | 69 | 43 | 0.0 | 4.0 | 0.00 | 0.00 | 0.00 | 64 | 1016.5 |
| 20260503001541 | 70 | 5 | 1.0 | 3.0 | 0.00 | 0.00 | 0.00 | 65 | 1016.5 |
| 20260503000020 | 70 | 13 | 1.0 | 3.0 | 0.00 | 0.00 | 0.00 | 64 | 1016.4 |
| 20260502234523 | 70 | 345 | 1.0 | 5.0 | 0.00 | 0.00 | 0.00 | 65 | 1016.4 |
| 20260502233024 | 71 | 326 | 1.0 | 5.0 | 0.00 | 0.00 | 0.00 | 66 | 1016.3 |
| 20260502231519 | 71 | 360 | 2.0 | 5.0 | 0.00 | 0.00 | 0.00 | 66 | 1016.3 |
| 20260502230018 | 71 | 25 | 3.0 | 10.0 | 0.00 | 0.00 | 0.00 | 66 | 1016.3 |
| 20260502224518 | 71 | 325 | 3.0 | 9.0 | 0.00 | 0.00 | 0.00 | 67 | 1016.3 |
| 20260502223018 | 71 | 330 | 3.0 | 6.0 | 0.00 | 0.00 | 0.00 | 68 | 1016.2 |
| 20260502221516 | 71 | 345 | 4.0 | 6.0 | 0.00 | 0.00 | 0.00 | 69 | 1016.3 |
| 20260502220016 | 71 | 333 | 3.0 | 11.0 | 0.00 | 0.00 | 0.00 | 70 | 1016.4 |
| 20260502214514 | 71 | 333 | 4.0 | 12.0 | 0.00 | 0.00 | 0.00 | 71 | 1016.5 |
| 20260502213018 | 71 | 337 | 4.0 | 11.0 | 0.00 | 0.00 | 0.00 | 71 | 1016.7 |
| 20260502211517 | 71 | 66 | 2.0 | 9.0 | 0.00 | 0.00 | 0.00 | 72 | 1016.9 |
| 20260502210012 | 71 | 340 | 4.0 | 10.0 | 0.00 | 0.00 | 0.00 | 74 | 1017.1 |
| 20260502204512 | 70 | 30 | 2.0 | 5.0 | 0.00 | 0.00 | 0.00 | 76 | 1017.3 |
| 20260502203007 | 70 | 343 | 2.0 | 8.0 | 0.00 | 0.00 | 0.00 | 77 | 1017.5 |
| 20260502201505 | 70 | 337 | 2.0 | 9.0 | 0.00 | 0.00 | 0.00 | 78 | 1017.7 |
| 20260502200004 | 69 | 316 | 1.0 | 9.0 | 0.00 | 0.00 | 0.00 | 79 | 1017.9 |
| 20260502194503 | 69 | 59 | 2.0 | 13.0 | 0.00 | 0.00 | 0.00 | 79 | 1018.1 |
| 20260502193001 | 69 | 43 | 1.0 | 8.0 | 0.00 | 0.00 | 0.00 | 82 | 1018.1 |
| 20260502191557 | 68 | 327 | 3.0 | 6.0 | 0.00 | 0.00 | 0.00 | 82 | 1018.2 |
| 20260502190058 | 68 | 331 | 2.0 | 6.0 | 0.00 | 0.00 | 0.00 | 83 | 1018.2 |
| 20260502184606 | 67 | 64 | 3.0 | 12.0 | 0.00 | 0.00 | 0.00 | 83 | 1018.5 |
| 20260502183103 | 67 | 321 | 2.0 | 8.0 | 0.00 | 0.00 | 0.00 | 84 | 1018.6 |
| 20260502181605 | 67 | 360 | 4.0 | 9.0 | 0.00 | 0.00 | 0.00 | 84 | 1018.8 |
| 20260502163047 | 62 | 61 | 2.0 | 9.0 | 0.00 | 0.00 | 0.00 | 88 | 1020.1 |
| 20260502161537 | 62 | 340 | 3.0 | 8.0 | 0.00 | 0.00 | 0.00 | 89 | 1020.2 |
| 20260502151521 | 59 | 344 | 2.0 | 6.0 | 0.00 | 0.00 | 0.00 | 91 | 1020.3 |
| 20260502123057 | 48 | 313 | 0.0 | 1.0 | 0.00 | 0.04 | 0.00 | 93 | 1018.3 |
| 20260502121541 | 48 | 313 | 0.0 | 0.0 | 0.00 | 0.04 | 0.00 | 93 | 1017.9 |
| 20260502114536 | 0 | 0.0 | 0.0 | 0.00 | 0.20 | 0.00 | 1017.2 | ||
| 20260502113030 | 0 | 0.0 | 0.0 | 0.00 | 0.20 | 0.00 | 1017.1 | ||
| 20260502111524 | 0 | 0.0 | 0.0 | 0.00 | 0.20 | 0.00 | 1017.0 | ||
| 20260502110024 | 0 | 0.0 | 0.0 | 0.00 | 0.20 | 0.00 | 1016.9 | ||
| 20260502104515 | 0 | 0.0 | 0.0 | 0.00 | 0.34 | 0.00 | 1016.8 | ||
| 20260502103012 | 0 | 0.0 | 0.0 | 0.00 | 0.34 | 0.00 | 1016.5 | ||
| 20260502101507 | 0 | 0.0 | 0.0 | 0.00 | 0.34 | 0.00 | 1016.0 | ||
| 20260502071514 | 0 | 0.0 | 0.0 | 0.00 | 0.70 | 0.00 | 1014.8 | ||
| 20260502070009 | 0 | 0.0 | 0.0 | 0.00 | 0.70 | 0.00 | 1014.6 | ||
| 20260502064505 | 0 | 0.0 | 0.0 | 0.00 | 0.71 | 0.00 | 1014.7 |